Time,TemperatureF,DewpointF,PressureIn,WindDirection,WindDirectionDegrees,WindSpeedMPH,WindSpeedGustMPH,Humidity,HourlyPrecipIn,Conditions,Clouds,dailyrainin,SolarRadiationWatts/m^2,SoftwareType,DateUTC
2013-02-10 00:00:00,21.0,15.5,30.39,WNW,292,4.0,5.0,79,-99.99,,,0.00,0.00,VWS V14.01,2013-02-10 05:00:00,
2013-02-10 00:01:00,20.0,14.8,30.39,WNW,292,4.0,5.0,80,-99.99,,,0.00,0.00,VWS V14.01,2013-02-10 05:01:00,
2013-02-10 00:02:00,20.0,14.8,30.39,WNW,292,3.0,5.0,80,-99.99,,,0.00,0.00,VWS V14.01,2013-02-10 05:02:00,
2013-02-10 00:03:00,20.0,14.8,30.39,WNW,292,6.0,6.0,80,-99.99,,,0.00,0.00,VWS V14.01,2013-02-10 05:03:00,
2013-02-10 00:04:00,20.0,14.8,30.39,NNW,338,2.0,6.0,80,-99.99,,,0.00,0.00,VWS V14.01,2013-02-10 05:04:00,
2013-02-10 00:05:00,20.0,14.8,30.39,WNW,292,4.0,5.0,80,-99.99,,,0.00,0.00,VWS V14.01,2013-02-10 05:05:00,
2013-02-10 00:06:00,20.0,14.8,30.39,WNW,292,4.0,5.0,80,-99.99,,,0.00,0.00,VWS V14.01,2013-02-10 05:06:00,
2013-02-10 00:07:00,20.0,14.8,30.39,West,270,1.0,4.0,80,-99.99,,,0.00,0.00,VWS V14.01,2013-02-10 05:07:00,
2013-02-10 00:08:00,20.0,14.8,30.39,NW,315,2.0,6.0,80,-99.99,,,0.00,0.00,VWS V14.01,2013-02-10 05:08:00,
2013-02-10 00:09:00,20.0,14.8,30.40,NW,315,3.0,5.0,80,-99.99,,,0.00,0.00,VWS V14.01,2013-02-10 05:09:00,
2013-02-10 00:10:00,20.0,14.8,30.39,NNW,338,2.0,4.0,80,-99.99,,,0.00,0.00,VWS V14.01,2013-02-10 05:10:00,
2013-02-10 00:11:00,20.0,14.8,30.40,NNW,338,2.0,3.0,80,-99.99,,,0.00,0.00,VWS V14.01,2013-02-10 05:11:00,
2013-02-10 00:12:00,20.0,14.8,30.40,West,270,2.0,4.0,80,-99.99,,,0.00,0.00,VWS V14.01,2013-02-10 05:12:00,
2013-02-10 00:13:00,20.0,14.8,30.40,West,270,4.0,4.0,80,-99.99,,,0.00,0.00,VWS V14.01,2013-02-10 05:13:00,
2013-02-10 00:14:00,20.0,14.8,30.40,West,270,3.0,5.0,80,-99.99,,,0.00,0.00,VWS V14.01,2013-02-10 05:14:00,
2013-02-10 00:15:00,20.0,14.8,30.40,NNW,338,1.0,4.0,80,-99.99,,,0.00,0.00,VWS V14.01,2013-02-10 05:15:00,
2013-02-10 00:16:00,20.0,14.8,30.40,NW,315,1.0,1.0,80,-99.99,,,0.00,0.00,VWS V14.01,2013-02-10 05:16:00,
2013-02-10 00:17:00,20.0,14.8,30.40,West,270,2.0,2.0,80,-99.99,,,0.00,0.00,VWS V14.01,2013-02-10 05:17:00,
2013-02-10 00:18:00,20.0,14.8,30.40,West,270,3.0,6.0,80,-99.99,,,0.00,0.00,VWS V14.01,2013-02-10 05:18:00,
2013-02-10 00:19:00,20.0,14.8,30.40,West,270,1.0,6.0,80,-99.99,,,0.00,0.00,VWS V14.01,2013-02-10 05:19:00,
2013-02-10 00:20:00,20.0,14.8,30.40,West,270,1.0,2.0,80,-99.99,,,0.00,0.00,VWS V14.01,2013-02-10 05:20:00,
2013-02-10 00:21:00,20.0,14.8,30.40,West,270,2.0,4.0,80,-99.99,,,0.00,0.00,VWS V14.01,2013-02-10 05:21:00,
2013-02-10 00:22:00,20.0,14.8,30.40,WSW,248,2.0,2.0,80,-99.99,,,0.00,0.00,VWS V14.01,2013-02-10 05:22:00,
2013-02-10 00:23:00,20.0,14.8,30.40,WNW,292,1.0,6.0,80,-99.99,,,0.00,0.00,VWS V14.01,2013-02-10 05:23:00,
2013-02-10 00:24:00,20.0,15.1,30.40,NW,315,0.0,3.0,81,-99.99,,,0.00,0.00,VWS V14.01,2013-02-10 05:24:00,
2013-02-10 00:25:00,20.0,14.8,30.40,NW,315,1.0,2.0,80,-99.99,,,0.00,0.00,VWS V14.01,2013-02-10 05:25:00,
2013-02-10 00:26:00,20.0,15.1,30.40,NW,315,1.0,5.0,81,-99.99,,,0.00,0.00,VWS V14.01,2013-02-10 05:26:00,
2013-02-10 00:27:00,20.0,15.1,30.40,NW,315,2.0,4.0,81,-99.99,,,0.00,0.00,VWS V14.01,2013-02-10 05:27:00,
2013-02-10 00:28:00,20.0,15.1,30.40,West,270,3.0,5.0,81,-99.99,,,0.00,0.00,VWS V14.01,2013-02-10 05:28:00,
2013-02-10 00:29:00,20.0,15.1,30.40,NW,315,1.0,3.0,81,-99.99,,,0.00,0.00,VWS V14.01,2013-02-10 05:29:00,
2013-02-10 00:30:00,20.0,15.1,30.40,North,0,4.0,4.0,81,-99.99,,,0.00,0.00,VWS V14.01,2013-02-10 05:30:00,
2013-02-10 00:31:00,20.0,15.1,30.40,West,270,1.0,5.0,81,-99.99,,,0.00,0.00,VWS V14.01,2013-02-10 05:31:00,
2013-02-10 00:32:00,20.0,15.1,30.40,NW,315,1.0,4.0,81,-99.99,,,0.00,0.00,VWS V14.01,2013-02-10 05:32:00,
2013-02-10 00:33:00,20.0,15.4,30.40,North,0,2.0,4.0,82,-99.99,,,0.00,0.00,VWS V14.01,2013-02-10 05:33:00,
2013-02-10 00:34:00,20.0,15.4,30.40,North,0,4.0,4.0,82,-99.99,,,0.00,0.00,VWS V14.01,2013-02-10 05:34:00,
2013-02-10 00:35:00,20.0,15.1,30.40,NNW,338,2.0,4.0,81,-99.99,,,0.00,0.00,VWS V14.01,2013-02-10 05:35:00,
2013-02-10 00:36:00,20.0,15.4,30.40,WNW,292,1.0,3.0,82,-99.99,,,0.00,0.00,VWS V14.01,2013-02-10 05:36:00,
2013-02-10 00:37:00,20.0,15.4,30.40,NNW,338,2.0,3.0,82,-99.99,,,0.00,0.00,VWS V14.01,2013-02-10 05:37:00,
2013-02-10 00:38:00,20.0,15.4,30.40,NNE,22,1.0,3.0,82,-99.99,,,0.00,0.00,VWS V14.01,2013-02-10 05:38:00,
2013-02-10 00:39:00,20.0,15.4,30.40,WNW,292,1.0,1.0,82,-99.99,,,0.00,0.00,VWS V14.01,2013-02-10 05:39:00,
2013-02-10 00:40:00,20.0,15.4,30.40,North,0,3.0,3.0,82,-99.99,,,0.00,0.00,VWS V14.01,2013-02-10 05:40:00,
2013-02-10 00:41:00,20.0,15.7,30.40,North,0,1.0,1.0,83,-99.99,,,0.00,0.00,VWS V14.01,2013-02-10 05:41:00,
2013-02-10 00:42:00,20.0,15.7,30.40,NNE,22,1.0,1.0,83,-99.99,,,0.00,0.00,VWS V14.01,2013-02-10 05:42:00,
2013-02-10 00:43:00,20.0,15.7,30.40,NE,45,1.0,2.0,83,-99.99,,,0.00,0.00,VWS V14.01,2013-02-10 05:43:00,
2013-02-10 00:44:00,20.0,15.4,30.40,NNE,22,1.0,3.0,82,-99.99,,,0.00,0.00,VWS V14.01,2013-02-10 05:44:00,
2013-02-10 00:45:00,20.0,15.7,30.40,NNE,22,1.0,1.0,83,-99.99,,,0.00,0.00,VWS V14.01,2013-02-10 05:45:00,
2013-02-10 00:46:00,20.0,15.4,30.40,North,0,0.0,2.0,82,-99.99,,,0.00,0.00,VWS V14.01,2013-02-10 05:46:00,
2013-02-10 00:47:00,20.0,15.4,30.40,WNW,292,1.0,1.0,82,-99.99,,,0.00,0.00,VWS V14.01,2013-02-10 05:47:00,
2013-02-10 00:48:00,20.0,15.4,30.40,WNW,292,1.0,1.0,82,-99.99,,,0.00,0.00,VWS V14.01,2013-02-10 05:48:00,
2013-02-10 00:49:00,20.0,15.4,30.40,WNW,292,1.0,1.0,82,-99.99,,,0.00,0.00,VWS V14.01,2013-02-10 05:49:00,
2013-02-10 00:50:00,20.0,15.4,30.40,North,0,0.0,1.0,82,-99.99,,,0.00,0.00,VWS V14.01,2013-02-10 05:50:00,
2013-02-10 00:51:00,20.0,15.4,30.40,NNW,338,0.0,1.0,82,-99.99,,,0.00,0.00,VWS V14.01,2013-02-10 05:51:00,
2013-02-10 00:52:00,20.0,15.4,30.40,SW,225,0.0,1.0,82,-99.99,,,0.00,0.00,VWS V14.01,2013-02-10 05:52:00,
2013-02-10 00:53:00,20.0,15.7,30.39,SSW,202,0.0,1.0,83,-99.99,,,0.00,0.00,VWS V14.01,2013-02-10 05:53:00,
2013-02-10 00:54:00,20.0,15.4,30.40,NW,315,1.0,2.0,82,-99.99,,,0.00,0.00,VWS V14.01,2013-02-10 05:54:00,
2013-02-10 00:55:00,20.0,15.4,30.40,SW,225,1.0,1.0,82,-99.99,,,0.00,0.00,VWS V14.01,2013-02-10 05:55:00,
2013-02-10 00:56:00,20.0,15.4,30.39,NNE,22,1.0,1.0,82,-99.99,,,0.00,0.00,VWS V14.01,2013-02-10 05:56:00,
2013-02-10 00:57:00,20.0,15.4,30.39,NW,315,0.0,1.0,82,-99.99,,,0.00,0.00,VWS V14.01,2013-02-10 05:57:00,
2013-02-10 00:58:00,20.0,15.4,30.39,NNE,22,1.0,1.0,82,-99.99,,,0.00,0.00,VWS V14.01,2013-02-10 05:58:00,
2013-02-10 00:59:00,20.0,15.4,30.40,NNW,338,0.0,1.0,82,-99.99,,,0.00,0.00,VWS V14.01,2013-02-10 05:59:00,
2013-02-10 01:00:00,20.0,15.4,30.40,NW,315,0.0,1.0,82,-99.99,,,0.00,0.00,VWS V14.01,2013-02-10 06:00:00,
2013-02-10 01:01:00,20.0,15.4,30.40,North,0,1.0,1.0,82,-99.99,,,0.00,0.00,VWS V14.01,2013-02-10 06:01:00,
2013-02-10 01:02:00,20.0,15.4,30.40,NNW,338,1.0,1.0,82,-99.99,,,0.00,0.00,VWS V14.01,2013-02-10 06:02:00,
2013-02-10 01:03:00,20.0,15.4,30.40,NNE,22,0.0,1.0,82,-99.99,,,0.00,0.00,VWS V14.01,2013-02-10 06:03:00,
2013-02-10 01:04:00,20.0,15.4,30.40,NNE,22,1.0,1.0,82,-99.99,,,0.00,0.00,VWS V14.01,2013-02-10 06:04:00,
2013-02-10 01:05:00,20.0,15.4,30.40,NNW,338,1.0,1.0,82,-99.99,,,0.00,0.00,VWS V14.01,2013-02-10 06:05:00,
2013-02-10 01:06:00,20.0,15.4,30.40,NW,315,0.0,1.0,82,-99.99,,,0.00,0.00,VWS V14.01,2013-02-10 06:06:00,
2013-02-10 01:07:00,20.0,15.4,30.40,NW,315,0.0,1.0,82,-99.99,,,0.00,0.00,VWS V14.01,2013-02-10 06:07:00,
2013-02-10 01:08:00,20.0,15.4,30.40,North,0,0.0,1.0,82,-99.99,,,0.00,0.00,VWS V14.01,2013-02-10 06:08:00,
2013-02-10 01:09:00,20.0,15.4,30.40,SW,225,1.0,3.0,82,-99.99,,,0.00,0.00,VWS V14.01,2013-02-10 06:09:00,
2013-02-10 01:10:00,20.0,15.4,30.40,NW,315,0.0,1.0,82,-99.99,,,0.00,0.00,VWS V14.01,2013-02-10 06:10:00,
2013-02-10 01:11:00,20.0,15.7,30.40,SSW,202,0.0,1.0,83,-99.99,,,0.00,0.00,VWS V14.01,2013-02-10 06:11:00,
2013-02-10 01:12:00,20.0,15.4,30.40,SW,225,1.0,1.0,82,-99.99,,,0.00,0.00,VWS V14.01,2013-02-10 06:12:00,
2013-02-10 01:13:00,20.0,15.4,30.40,WSW,248,1.0,2.0,82,-99.99,,,0.00,0.00,VWS V14.01,2013-02-10 06:13:00,
2013-02-10 01:14:00,20.0,15.4,30.40,SW,225,1.0,1.0,82,-99.99,,,0.00,0.00,VWS V14.01,2013-02-10 06:14:00,
2013-02-10 01:15:00,20.0,15.4,30.40,SW,225,0.0,1.0,82,-99.99,,,0.00,0.00,VWS V14.01,2013-02-10 06:15:00,
2013-02-10 01:16:00,21.0,16.1,30.40,WSW,248,1.0,2.0,81,-99.99,,,0.00,0.00,VWS V14.01,2013-02-10 06:16:00,
2013-02-10 01:17:00,21.0,16.1,30.40,WSW,248,1.0,2.0,81,-99.99,,,0.00,0.00,VWS V14.01,2013-02-10 06:17:00,
2013-02-10 01:18:00,21.0,16.1,30.40,West,270,1.0,2.0,81,-99.99,,,0.00,0.00,VWS V14.01,2013-02-10 06:18:00,
2013-02-10 01:19:00,21.0,15.8,30.40,West,270,2.0,3.0,80,-99.99,,,0.00,0.00,VWS V14.01,2013-02-10 06:19:00,
2013-02-10 01:20:00,21.0,16.1,30.40,WSW,248,1.0,2.0,81,-99.99,,,0.00,0.00,VWS V14.01,2013-02-10 06:20:00,
2013-02-10 01:21:00,21.0,15.8,30.40,WSW,248,0.0,3.0,80,-99.99,,,0.00,0.00,VWS V14.01,2013-02-10 06:21:00,
2013-02-10 01:22:00,21.0,15.8,30.40,WSW,248,1.0,2.0,80,-99.99,,,0.00,0.00,VWS V14.01,2013-02-10 06:22:00,
2013-02-10 01:23:00,21.0,15.5,30.40,WNW,292,1.0,1.0,79,-99.99,,,0.00,0.00,VWS V14.01,2013-02-10 06:23:00,
2013-02-10 01:24:00,21.0,15.5,30.40,West,270,1.0,2.0,79,-99.99,,,0.00,0.00,VWS V14.01,2013-02-10 06:24:00,
2013-02-10 01:25:00,21.0,15.8,30.40,West,270,1.0,1.0,80,-99.99,,,0.00,0.00,VWS V14.01,2013-02-10 06:25:00,
2013-02-10 01:26:00,20.0,14.6,30.40,WNW,292,1.0,2.0,79,-99.99,,,0.00,0.00,VWS V14.01,2013-02-10 06:26:00,
2013-02-10 01:27:00,20.0,14.3,30.40,WNW,292,1.0,2.0,78,-99.99,,,0.00,0.00,VWS V14.01,2013-02-10 06:27:00,
2013-02-10 01:28:00,20.0,14.3,30.40,WNW,292,2.0,4.0,78,-99.99,,,0.00,0.00,VWS V14.01,2013-02-10 06:28:00,
2013-02-10 01:29:00,20.0,14.6,30.40,WNW,292,4.0,4.0,79,-99.99,,,0.00,0.00,VWS V14.01,2013-02-10 06:29:00,
2013-02-10 01:30:00,20.0,14.6,30.40,WNW,292,2.0,2.0,79,-99.99,,,0.00,0.00,VWS V14.01,2013-02-10 06:30:00,
2013-02-10 01:31:00,19.0,13.6,30.40,WNW,292,3.0,4.0,79,-99.99,,,0.00,0.00,VWS V14.01,2013-02-10 06:31:00,
2013-02-10 01:32:00,19.0,13.6,30.40,WNW,292,3.0,4.0,79,-99.99,,,0.00,0.00,VWS V14.01,2013-02-10 06:32:00,
2013-02-10 01:33:00,19.0,13.9,30.40,WNW,292,3.0,4.0,80,-99.99,,,0.00,0.00,VWS V14.01,2013-02-10 06:33:00,
2013-02-10 01:34:00,19.0,13.9,30.40,WNW,292,3.0,4.0,80,-99.99,,,0.00,0.00,VWS V14.01,2013-02-10 06:34:00,
2013-02-10 01:35:00,19.0,13.6,30.40,WNW,292,1.0,4.0,79,-99.99,,,0.00,0.00,VWS V14.01,2013-02-10 06:35:00,
2013-02-10 01:36:00,19.0,13.9,30.40,WNW,292,3.0,4.0,80,-99.99,,,0.00,0.00,VWS V14.01,2013-02-10 06:36:00,
2013-02-10 01:37:00,19.0,14.1,30.40,WNW,292,3.0,4.0,81,-99.99,,,0.00,0.00,VWS V14.01,2013-02-10 06:37:00,
2013-02-10 01:38:00,18.0,13.2,30.40,NW,315,3.0,4.0,81,-99.99,,,0.00,0.00,VWS V14.01,2013-02-10 06:38:00,
2013-02-10 01:39:00,18.0,13.2,30.40,WNW,292,4.0,4.0,81,-99.99,,,0.00,0.00,VWS V14.01,2013-02-10 06:39:00,
2013-02-10 01:40:00,19.0,14.1,30.40,NW,315,2.0,4.0,81,-99.99,,,0.00,0.00,VWS V14.01,2013-02-10 06:40:00,
2013-02-10 01:41:00,18.0,13.4,30.40,West,270,2.0,6.0,82,-99.99,,,0.00,0.00,VWS V14.01,2013-02-10 06:41:00,
2013-02-10 01:42:00,18.0,13.4,30.40,WNW,292,4.0,5.0,82,-99.99,,,0.00,0.00,VWS V14.01,2013-02-10 06:42:00,
2013-02-10 01:43:00,18.0,13.4,30.39,NW,315,4.0,7.0,82,-99.99,,,0.00,0.00,VWS V14.01,2013-02-10 06:43:00,
2013-02-10 01:44:00,18.0,13.7,30.39,WNW,292,3.0,6.0,83,-99.99,,,0.00,0.00,VWS V14.01,2013-02-10 06:44:00,
2013-02-10 01:45:00,18.0,13.4,30.39,WNW,292,4.0,5.0,82,-99.99,,,0.00,0.00,VWS V14.01,2013-02-10 06:45:00,
2013-02-10 01:46:00,18.0,13.7,30.39,West,270,4.0,6.0,83,-99.99,,,0.00,0.00,VWS V14.01,2013-02-10 06:46:00,
2013-02-10 01:47:00,18.0,13.7,30.39,WNW,292,3.0,4.0,83,-99.99,,,0.00,0.00,VWS V14.01,2013-02-10 06:47:00,
2013-02-10 01:48:00,18.0,13.7,30.39,West,270,2.0,4.0,83,-99.99,,,0.00,0.00,VWS V14.01,2013-02-10 06:48:00,
2013-02-10 01:49:00,18.0,13.7,30.39,WNW,292,3.0,3.0,83,-99.99,,,0.00,0.00,VWS V14.01,2013-02-10 06:49:00,
2013-02-10 01:50:00,18.0,13.7,30.39,NW,315,1.0,4.0,83,-99.99,,,0.00,0.00,VWS V14.01,2013-02-10 06:50:00,
2013-02-10 01:51:00,18.0,13.7,30.40,West,270,3.0,5.0,83,-99.99,,,0.00,0.00,VWS V14.01,2013-02-10 06:51:00,
2013-02-10 01:52:00,18.0,13.7,30.40,West,270,2.0,5.0,83,-99.99,,,0.00,0.00,VWS V14.01,2013-02-10 06:52:00,
2013-02-10 01:53:00,19.0,15.0,30.39,West,270,2.0,3.0,84,-99.99,,,0.00,0.00,VWS V14.01,2013-02-10 06:53:00,
2013-02-10 01:54:00,19.0,15.0,30.39,SW,225,2.0,4.0,84,-99.99,,,0.00,0.00,VWS V14.01,2013-02-10 06:54:00,
2013-02-10 01:55:00,18.0,13.7,30.39,WSW,248,2.0,5.0,83,-99.99,,,0.00,0.00,VWS V14.01,2013-02-10 06:55:00,
2013-02-10 01:56:00,19.0,15.0,30.39,WSW,248,2.0,3.0,84,-99.99,,,0.00,0.00,VWS V14.01,2013-02-10 06:56:00,
2013-02-10 01:57:00,19.0,14.7,30.39,WNW,292,2.0,4.0,83,-99.99,,,0.00,0.00,VWS V14.01,2013-02-10 06:57:00,
2013-02-10 01:58:00,19.0,14.7,30.40,West,270,0.0,3.0,83,-99.99,,,0.00,0.00,VWS V14.01,2013-02-10 06:58:00,
2013-02-10 01:59:00,19.0,14.7,30.40,WSW,248,0.0,1.0,83,-99.99,,,0.00,0.00,VWS V14.01,2013-02-10 06:59:00,
2013-02-10 02:00:00,19.0,14.7,30.40,West,270,3.0,4.0,83,-99.99,,,0.00,0.00,VWS V14.01,2013-02-10 07:00:00,
2013-02-10 02:01:00,19.0,14.7,30.40,West,270,1.0,1.0,83,-99.99,,,0.00,0.00,VWS V14.01,2013-02-10 07:01:00,
2013-02-10 02:02:00,19.0,14.7,30.40,South,180,0.0,2.0,83,-99.99,,,0.00,0.00,VWS V14.01,2013-02-10 07:02:00,
2013-02-10 02:03:00,19.0,14.7,30.40,SSE,158,1.0,2.0,83,-99.99,,,0.00,0.00,VWS V14.01,2013-02-10 07:03:00,
2013-02-10 02:04:00,19.0,14.4,30.40,SE,135,2.0,2.0,82,-99.99,,,0.00,0.00,VWS V14.01,2013-02-10 07:04:00,
2013-02-10 02:05:00,19.0,14.7,30.40,South,180,2.0,2.0,83,-99.99,,,0.00,0.00,VWS V14.01,2013-02-10 07:05:00,
2013-02-10 02:06:00,19.0,14.4,30.40,ESE,112,2.0,3.0,82,-99.99,,,0.00,0.00,VWS V14.01,2013-02-10 07:06:00,
2013-02-10 02:07:00,19.0,14.7,30.40,ESE,112,2.0,3.0,83,-99.99,,,0.00,0.00,VWS V14.01,2013-02-10 07:07:00,
2013-02-10 02:08:00,19.0,14.7,30.40,ESE,112,1.0,3.0,83,-99.99,,,0.00,0.00,VWS V14.01,2013-02-10 07:08:00,
2013-02-10 02:09:00,19.0,14.7,30.40,East,90,1.0,2.0,83,-99.99,,,0.00,0.00,VWS V14.01,2013-02-10 07:09:00,
2013-02-10 02:10:00,19.0,14.7,30.40,ESE,112,3.0,3.0,83,-99.99,,,0.00,0.00,VWS V14.01,2013-02-10 07:10:00,
2013-02-10 02:11:00,19.0,14.7,30.40,NE,45,0.0,1.0,83,-99.99,,,0.00,0.00,VWS V14.01,2013-02-10 07:11:00,
2013-02-10 02:12:00,19.0,14.7,30.40,ENE,68,2.0,3.0,83,-99.99,,,0.00,0.00,VWS V14.01,2013-02-10 07:12:00,
2013-02-10 02:13:00,19.0,14.7,30.40,ENE,68,2.0,3.0,83,-99.99,,,0.00,0.00,VWS V14.01,2013-02-10 07:13:00,
2013-02-10 02:14:00,19.0,14.7,30.40,ESE,112,2.0,3.0,83,-99.99,,,0.00,0.00,VWS V14.01,2013-02-10 07:14:00,
2013-02-10 02:15:00,19.0,14.7,30.40,NE,45,1.0,1.0,83,-99.99,,,0.00,0.00,VWS V14.01,2013-02-10 07:15:00,
2013-02-10 02:16:00,19.0,15.0,30.40,NNE,22,1.0,3.0,84,-99.99,,,0.00,0.00,VWS V14.01,2013-02-10 07:16:00,
2013-02-10 02:17:00,19.0,15.0,30.40,ESE,112,3.0,4.0,84,-99.99,,,0.00,0.00,VWS V14.01,2013-02-10 07:17:00,
2013-02-10 02:18:00,19.0,15.0,30.40,ESE,112,3.0,4.0,84,-99.99,,,0.00,0.00,VWS V14.01,2013-02-10 07:18:00,
2013-02-10 02:19:00,19.0,15.0,30.40,NNE,22,2.0,4.0,84,-99.99,,,0.00,0.00,VWS V14.01,2013-02-10 07:19:00,
2013-02-10 02:20:00,19.0,15.0,30.40,ESE,112,3.0,4.0,84,-99.99,,,0.00,0.00,VWS V14.01,2013-02-10 07:20:00,
2013-02-10 02:21:00,18.0,14.0,30.40,ENE,68,1.0,2.0,84,-99.99,,,0.00,0.00,VWS V14.01,2013-02-10 07:21:00,
2013-02-10 02:22:00,18.0,14.3,30.40,NE,45,1.0,4.0,85,-99.99,,,0.00,0.00,VWS V14.01,2013-02-10 07:22:00,
2013-02-10 02:23:00,18.0,14.3,30.40,East,90,1.0,2.0,85,-99.99,,,0.00,0.00,VWS V14.01,2013-02-10 07:23:00,
2013-02-10 02:24:00,18.0,14.3,30.40,ESE,112,2.0,2.0,85,-99.99,,,0.00,0.00,VWS V14.01,2013-02-10 07:24:00,
2013-02-10 02:25:00,18.0,14.3,30.40,East,90,2.0,4.0,85,-99.99,,,0.00,0.00,VWS V14.01,2013-02-10 07:25:00,
2013-02-10 02:26:00,19.0,15.2,30.40,East,90,0.0,2.0,85,-99.99,,,0.00,0.00,VWS V14.01,2013-02-10 07:26:00,
2013-02-10 02:27:00,19.0,15.2,30.40,ESE,112,1.0,1.0,85,-99.99,,,0.00,0.00,VWS V14.01,2013-02-10 07:27:00,
2013-02-10 02:28:00,19.0,15.5,30.40,ESE,112,1.0,2.0,86,-99.99,,,0.00,0.00,VWS V14.01,2013-02-10 07:28:00,
2013-02-10 02:29:00,19.0,15.5,30.40,ESE,112,2.0,2.0,86,-99.99,,,0.00,0.00,VWS V14.01,2013-02-10 07:29:00,
2013-02-10 02:30:00,19.0,15.2,30.40,East,90,0.0,1.0,85,-99.99,,,0.00,0.00,VWS V14.01,2013-02-10 07:30:00,
2013-02-10 02:31:00,19.0,15.2,30.40,SE,135,1.0,3.0,85,-99.99,,,0.00,0.00,VWS V14.01,2013-02-10 07:31:00,
2013-02-10 02:32:00,19.0,15.2,30.40,SE,135,1.0,2.0,85,-99.99,,,0.00,0.00,VWS V14.01,2013-02-10 07:32:00,
2013-02-10 02:33:00,19.0,15.2,30.40,ESE,112,1.0,2.0,85,-99.99,,,0.00,0.00,VWS V14.01,2013-02-10 07:33:00,
2013-02-10 02:34:00,19.0,15.2,30.40,SE,135,1.0,2.0,85,-99.99,,,0.00,0.00,VWS V14.01,2013-02-10 07:34:00,
2013-02-10 02:35:00,19.0,15.2,30.40,SE,135,1.0,2.0,85,-99.99,,,0.00,0.00,VWS V14.01,2013-02-10 07:35:00,
2013-02-10 02:36:00,19.0,15.2,30.40,SSW,202,1.0,2.0,85,-99.99,,,0.00,0.00,VWS V14.01,2013-02-10 07:36:00,
2013-02-10 02:37:00,19.0,15.2,30.40,SSW,202,1.0,2.0,85,-99.99,,,0.00,0.00,VWS V14.01,2013-02-10 07:37:00,
2013-02-10 02:38:00,19.0,15.2,30.40,SW,225,2.0,2.0,85,-99.99,,,0.00,0.00,VWS V14.01,2013-02-10 07:38:00,
2013-02-10 02:39:00,19.0,15.2,30.40,SW,225,3.0,3.0,85,-99.99,,,0.00,0.00,VWS V14.01,2013-02-10 07:39:00,
2013-02-10 02:40:00,19.0,15.2,30.40,SSW,202,1.0,2.0,85,-99.99,,,0.00,0.00,VWS V14.01,2013-02-10 07:40:00,
2013-02-10 02:41:00,19.0,15.5,30.40,SW,225,3.0,3.0,86,-99.99,,,0.00,0.00,VWS V14.01,2013-02-10 07:41:00,
2013-02-10 02:42:00,19.0,15.2,30.40,SW,225,4.0,4.0,85,-99.99,,,0.00,0.00,VWS V14.01,2013-02-10 07:42:00,
2013-02-10 02:43:00,19.0,15.2,30.40,SW,225,2.0,4.0,85,-99.99,,,0.00,0.00,VWS V14.01,2013-02-10 07:43:00,
2013-02-10 02:44:00,19.0,15.2,30.40,SW,225,2.0,3.0,85,-99.99,,,0.00,0.00,VWS V14.01,2013-02-10 07:44:00,
2013-02-10 02:45:00,19.0,15.5,30.40,SW,225,2.0,3.0,86,-99.99,,,0.00,0.00,VWS V14.01,2013-02-10 07:45:00,
2013-02-10 02:46:00,19.0,15.2,30.40,SW,225,2.0,3.0,85,-99.99,,,0.00,0.00,VWS V14.01,2013-02-10 07:46:00,
2013-02-10 02:47:00,19.0,15.2,30.40,SW,225,2.0,4.0,85,-99.99,,,0.00,0.00,VWS V14.01,2013-02-10 07:47:00,
2013-02-10 02:48:00,19.0,15.0,30.40,WSW,248,2.0,3.0,84,-99.99,,,0.00,0.00,VWS V14.01,2013-02-10 07:48:00,
2013-02-10 02:49:00,19.0,15.0,30.40,SSW,202,2.0,4.0,84,-99.99,,,0.00,0.00,VWS V14.01,2013-02-10 07:49:00,
2013-02-10 02:50:00,19.0,15.2,30.40,SW,225,3.0,4.0,85,-99.99,,,0.00,0.00,VWS V14.01,2013-02-10 07:50:00,
2013-02-10 02:51:00,19.0,15.0,30.40,SSW,202,3.0,3.0,84,-99.99,,,0.00,0.00,VWS V14.01,2013-02-10 07:51:00,
2013-02-10 02:52:00,19.0,14.7,30.40,SW,225,1.0,3.0,83,-99.99,,,0.00,0.00,VWS V14.01,2013-02-10 07:52:00,
2013-02-10 02:53:00,20.0,15.7,30.40,SSW,202,1.0,2.0,83,-99.99,,,0.00,0.00,VWS V14.01,2013-02-10 07:53:00,
2013-02-10 02:54:00,19.0,14.7,30.40,SW,225,1.0,2.0,83,-99.99,,,0.00,0.00,VWS V14.01,2013-02-10 07:54:00,
2013-02-10 02:55:00,19.0,14.7,30.40,WSW,248,1.0,3.0,83,-99.99,,,0.00,0.00,VWS V14.01,2013-02-10 07:55:00,
2013-02-10 02:56:00,20.0,15.7,30.40,SSW,202,2.0,2.0,83,-99.99,,,0.00,0.00,VWS V14.01,2013-02-10 07:56:00,
2013-02-10 02:57:00,20.0,15.7,30.40,SSW,202,2.0,3.0,83,-99.99,,,0.00,0.00,VWS V14.01,2013-02-10 07:57:00,
2013-02-10 02:58:00,19.0,14.7,30.40,SSW,202,2.0,2.0,83,-99.99,,,0.00,0.00,VWS V14.01,2013-02-10 07:58:00,
2013-02-10 02:59:00,20.0,15.7,30.40,South,180,0.0,2.0,83,-99.99,,,0.00,0.00,VWS V14.01,2013-02-10 07:59:00,
2013-02-10 03:00:00,20.0,15.7,30.40,SSW,202,1.0,3.0,83,-99.99,,,0.00,0.00,VWS V14.01,2013-02-10 08:00:00,
2013-02-10 03:01:00,19.0,14.7,30.40,ESE,112,1.0,1.0,83,-99.99,,,0.00,0.00,VWS V14.01,2013-02-10 08:01:00,
2013-02-10 03:02:00,19.0,14.7,30.40,East,90,1.0,2.0,83,-99.99,,,0.00,0.00,VWS V14.01,2013-02-10 08:02:00,
2013-02-10 03:03:00,19.0,14.7,30.40,NE,45,1.0,2.0,83,-99.99,,,0.00,0.00,VWS V14.01,2013-02-10 08:03:00,
2013-02-10 03:04:00,19.0,14.4,30.40,NE,45,1.0,2.0,82,-99.99,,,0.00,0.00,VWS V14.01,2013-02-10 08:04:00,
2013-02-10 03:05:00,19.0,14.7,30.40,ENE,68,1.0,2.0,83,-99.99,,,0.00,0.00,VWS V14.01,2013-02-10 08:05:00,
2013-02-10 03:06:00,19.0,14.4,30.40,NE,45,1.0,3.0,82,-99.99,,,0.00,0.00,VWS V14.01,2013-02-10 08:06:00,
2013-02-10 03:07:00,19.0,14.4,30.40,ENE,68,2.0,3.0,82,-99.99,,,0.00,0.00,VWS V14.01,2013-02-10 08:07:00,
2013-02-10 03:08:00,19.0,14.4,30.40,NE,45,1.0,3.0,82,-99.99,,,0.00,0.00,VWS V14.01,2013-02-10 08:08:00,
2013-02-10 03:09:00,18.0,13.4,30.40,NE,45,2.0,2.0,82,-99.99,,,0.00,0.00,VWS V14.01,2013-02-10 08:09:00,
2013-02-10 03:10:00,19.0,14.4,30.40,ENE,68,1.0,3.0,82,-99.99,,,0.00,0.00,VWS V14.01,2013-02-10 08:10:00,
2013-02-10 03:11:00,18.0,13.7,30.40,NE,45,3.0,3.0,83,-99.99,,,0.00,0.00,VWS V14.01,2013-02-10 08:11:00,
2013-02-10 03:12:00,18.0,13.7,30.40,NE,45,2.0,3.0,83,-99.99,,,0.00,0.00,VWS V14.01,2013-02-10 08:12:00,
2013-02-10 03:13:00,18.0,13.7,30.39,NE,45,2.0,3.0,83,-99.99,,,0.00,0.00,VWS V14.01,2013-02-10 08:13:00,
2013-02-10 03:14:00,18.0,14.0,30.40,ENE,68,2.0,3.0,84,-99.99,,,0.00,0.00,VWS V14.01,2013-02-10 08:14:00,
2013-02-10 03:15:00,18.0,13.7,30.40,ENE,68,2.0,3.0,83,-99.99,,,0.00,0.00,VWS V14.01,2013-02-10 08:15:00,
2013-02-10 03:16:00,18.0,14.3,30.39,ESE,112,1.0,3.0,85,-99.99,,,0.00,0.00,VWS V14.01,2013-02-10 08:16:00,
2013-02-10 03:17:00,18.0,14.3,30.39,ESE,112,1.0,3.0,85,-99.99,,,0.00,0.00,VWS V14.01,2013-02-10 08:17:00,
2013-02-10 03:18:00,18.0,14.3,30.39,ESE,112,1.0,2.0,85,-99.99,,,0.00,0.00,VWS V14.01,2013-02-10 08:18:00,
2013-02-10 03:19:00,18.0,14.3,30.39,SSE,158,1.0,1.0,85,-99.99,,,0.00,0.00,VWS V14.01,2013-02-10 08:19:00,
2013-02-10 03:20:00,18.0,14.3,30.39,ESE,112,1.0,3.0,85,-99.99,,,0.00,0.00,VWS V14.01,2013-02-10 08:20:00,
2013-02-10 03:21:00,18.0,14.5,30.39,SSE,158,0.0,1.0,86,-99.99,,,0.00,0.00,VWS V14.01,2013-02-10 08:21:00,
2013-02-10 03:22:00,18.0,14.5,30.39,SE,135,0.0,1.0,86,-99.99,,,0.00,0.00,VWS V14.01,2013-02-10 08:22:00,
2013-02-10 03:23:00,18.0,14.5,30.40,SE,135,0.0,1.0,86,-99.99,,,0.00,0.00,VWS V14.01,2013-02-10 08:23:00,
2013-02-10 03:24:00,18.0,14.5,30.39,WSW,248,1.0,1.0,86,-99.99,,,0.00,0.00,VWS V14.01,2013-02-10 08:24:00,
2013-02-10 03:25:00,18.0,14.5,30.39,SE,135,0.0,1.0,86,-99.99,,,0.00,0.00,VWS V14.01,2013-02-10 08:25:00,
2013-02-10 03:26:00,18.0,14.5,30.39,NNW,338,2.0,2.0,86,-99.99,,,0.00,0.00,VWS V14.01,2013-02-10 08:26:00,
2013-02-10 03:27:00,17.0,13.5,30.39,NNW,338,1.0,3.0,86,-99.99,,,0.00,0.00,VWS V14.01,2013-02-10 08:27:00,
2013-02-10 03:28:00,17.0,13.5,30.39,NW,315,2.0,3.0,86,-99.99,,,0.00,0.00,VWS V14.01,2013-02-10 08:28:00,
2013-02-10 03:29:00,17.0,13.5,30.39,NW,315,1.0,2.0,86,-99.99,,,0.00,0.00,VWS V14.01,2013-02-10 08:29:00,
2013-02-10 03:30:00,17.0,13.5,30.39,NW,315,2.0,3.0,86,-99.99,,,0.00,0.00,VWS V14.01,2013-02-10 08:30:00,
2013-02-10 03:31:00,17.0,13.5,30.39,NW,315,0.0,1.0,86,-99.99,,,0.00,0.00,VWS V14.01,2013-02-10 08:31:00,
2013-02-10 03:32:00,17.0,13.5,30.39,NW,315,0.0,1.0,86,-99.99,,,0.00,0.00,VWS V14.01,2013-02-10 08:32:00,
2013-02-10 03:33:00,17.0,13.8,30.39,WSW,248,0.0,1.0,87,-99.99,,,0.00,0.00,VWS V14.01,2013-02-10 08:33:00,
2013-02-10 03:34:00,17.0,13.8,30.39,WSW,248,0.0,1.0,87,-99.99,,,0.00,0.00,VWS V14.01,2013-02-10 08:34:00,
2013-02-10 03:35:00,17.0,13.5,30.39,NW,315,0.0,1.0,86,-99.99,,,0.00,0.00,VWS V14.01,2013-02-10 08:35:00,
2013-02-10 03:36:00,17.0,13.8,30.39,WNW,292,1.0,1.0,87,-99.99,,,0.00,0.00,VWS V14.01,2013-02-10 08:36:00,
2013-02-10 03:37:00,17.0,13.8,30.39,NNW,338,0.0,1.0,87,-99.99,,,0.00,0.00,VWS V14.01,2013-02-10 08:37:00,
2013-02-10 03:38:00,17.0,13.8,30.39,NNW,338,0.0,1.0,87,-99.99,,,0.00,0.00,VWS V14.01,2013-02-10 08:38:00,
2013-02-10 03:39:00,17.0,13.8,30.39,ESE,112,1.0,1.0,87,-99.99,,,0.00,0.00,VWS V14.01,2013-02-10 08:39:00,
2013-02-10 03:40:00,17.0,13.8,30.39,NNW,338,1.0,1.0,87,-99.99,,,0.00,0.00,VWS V14.01,2013-02-10 08:40:00,
2013-02-10 03:41:00,17.0,13.8,30.39,SE,135,2.0,2.0,87,-99.99,,,0.00,0.00,VWS V14.01,2013-02-10 08:41:00,
2013-02-10 03:42:00,17.0,13.8,30.39,SSE,158,1.0,2.0,87,-99.99,,,0.00,0.00,VWS V14.01,2013-02-10 08:42:00,
2013-02-10 03:43:00,17.0,13.8,30.39,ESE,112,2.0,3.0,87,-99.99,,,0.00,0.00,VWS V14.01,2013-02-10 08:43:00,
2013-02-10 03:44:00,17.0,13.8,30.40,ESE,112,1.0,3.0,87,-99.99,,,0.00,0.00,VWS V14.01,2013-02-10 08:44:00,
2013-02-10 03:45:00,17.0,13.8,30.39,SSE,158,1.0,2.0,87,-99.99,,,0.00,0.00,VWS V14.01,2013-02-10 08:45:00,
2013-02-10 03:46:00,17.0,14.1,30.40,SE,135,1.0,3.0,88,-99.99,,,0.00,0.00,VWS V14.01,2013-02-10 08:46:00,
2013-02-10 03:47:00,17.0,14.1,30.40,ESE,112,1.0,2.0,88,-99.99,,,0.00,0.00,VWS V14.01,2013-02-10 08:47:00,
2013-02-10 03:48:00,17.0,14.1,30.40,SSW,202,0.0,2.0,88,-99.99,,,0.00,0.00,VWS V14.01,2013-02-10 08:48:00,
2013-02-10 03:49:00,17.0,14.1,30.40,South,180,1.0,1.0,88,-99.99,,,0.00,0.00,VWS V14.01,2013-02-10 08:49:00,
2013-02-10 03:50:00,17.0,14.1,30.40,ESE,112,1.0,2.0,88,-99.99,,,0.00,0.00,VWS V14.01,2013-02-10 08:50:00,
2013-02-10 03:51:00,17.0,14.1,30.40,SW,225,1.0,1.0,88,-99.99,,,0.00,0.00,VWS V14.01,2013-02-10 08:51:00,
2013-02-10 03:52:00,17.0,14.3,30.40,WSW,248,1.0,2.0,89,-99.99,,,0.00,0.00,VWS V14.01,2013-02-10 08:52:00,
2013-02-10 03:53:00,17.0,14.3,30.40,WNW,292,1.0,2.0,89,-99.99,,,0.00,0.00,VWS V14.01,2013-02-10 08:53:00,
2013-02-10 03:54:00,17.0,14.1,30.40,WNW,292,2.0,2.0,88,-99.99,,,0.00,0.00,VWS V14.01,2013-02-10 08:54:00,
2013-02-10 03:55:00,17.0,14.3,30.40,SW,225,1.0,2.0,89,-99.99,,,0.00,0.00,VWS V14.01,2013-02-10 08:55:00,
2013-02-10 03:56:00,17.0,14.1,30.40,WNW,292,2.0,2.0,88,-99.99,,,0.00,0.00,VWS V14.01,2013-02-10 08:56:00,
2013-02-10 03:57:00,17.0,14.1,30.40,WNW,292,2.0,2.0,88,-99.99,,,0.00,0.00,VWS V14.01,2013-02-10 08:57:00,
2013-02-10 03:58:00,17.0,14.1,30.40,NW,315,1.0,2.0,88,-99.99,,,0.00,0.00,VWS V14.01,2013-02-10 08:58:00,
2013-02-10 03:59:00,17.0,14.1,30.40,NW,315,1.0,1.0,88,-99.99,,,0.00,0.00,VWS V14.01,2013-02-10 08:59:00,
2013-02-10 04:00:00,17.0,14.1,30.40,WNW,292,1.0,2.0,88,-99.99,,,0.00,0.00,VWS V14.01,2013-02-10 09:00:00,
2013-02-10 04:01:00,17.0,14.1,30.40,NE,45,1.0,2.0,88,-99.99,,,0.00,0.00,VWS V14.01,2013-02-10 09:01:00,
2013-02-10 04:02:00,17.0,14.1,30.40,ESE,112,1.0,2.0,88,-99.99,,,0.00,0.00,VWS V14.01,2013-02-10 09:02:00,
2013-02-10 04:03:00,17.0,14.1,30.40,NE,45,1.0,2.0,88,-99.99,,,0.00,0.00,VWS V14.01,2013-02-10 09:03:00,
2013-02-10 04:04:00,17.0,14.3,30.40,ESE,112,2.0,3.0,89,-99.99,,,0.00,0.00,VWS V14.01,2013-02-10 09:04:00,
2013-02-10 04:05:00,17.0,14.1,30.40,NE,45,1.0,2.0,88,-99.99,,,0.00,0.00,VWS V14.01,2013-02-10 09:05:00,
2013-02-10 04:06:00,17.0,14.3,30.40,East,90,2.0,3.0,89,-99.99,,,0.00,0.00,VWS V14.01,2013-02-10 09:06:00,
2013-02-10 04:07:00,17.0,14.3,30.40,East,90,1.0,3.0,89,-99.99,,,0.00,0.00,VWS V14.01,2013-02-10 09:07:00,
2013-02-10 04:08:00,17.0,14.3,30.40,NE,45,1.0,3.0,89,-99.99,,,0.00,0.00,VWS V14.01,2013-02-10 09:08:00,
2013-02-10 04:09:00,17.0,14.3,30.40,ENE,68,3.0,3.0,89,-99.99,,,0.00,0.00,VWS V14.01,2013-02-10 09:09:00,
2013-02-10 04:10:00,17.0,14.3,30.40,ESE,112,2.0,3.0,89,-99.99,,,0.00,0.00,VWS V14.01,2013-02-10 09:10:00,
2013-02-10 04:11:00,16.0,13.3,30.40,NE,45,2.0,4.0,89,-99.99,,,0.00,0.00,VWS V14.01,2013-02-10 09:11:00,
2013-02-10 04:12:00,16.0,13.3,30.40,NE,45,2.0,4.0,89,-99.99,,,0.00,0.00,VWS V14.01,2013-02-10 09:12:00,
2013-02-10 04:13:00,16.0,13.3,30.40,ENE,68,3.0,3.0,89,-99.99,,,0.00,0.00,VWS V14.01,2013-02-10 09:13:00,
2013-02-10 04:14:00,16.0,13.3,30.40,NNE,22,2.0,3.0,89,-99.99,,,0.00,0.00,VWS V14.01,2013-02-10 09:14:00,
2013-02-10 04:15:00,16.0,13.3,30.40,NE,45,2.0,4.0,89,-99.99,,,0.00,0.00,VWS V14.01,2013-02-10 09:15:00,
2013-02-10 04:16:00,16.0,13.3,30.40,NE,45,1.0,3.0,89,-99.99,,,0.00,0.00,VWS V14.01,2013-02-10 09:16:00,
2013-02-10 04:17:00,16.0,13.3,30.40,East,90,1.0,3.0,89,-99.99,,,0.00,0.00,VWS V14.01,2013-02-10 09:17:00,
2013-02-10 04:18:00,16.0,13.3,30.40,NE,45,1.0,2.0,89,-99.99,,,0.00,0.00,VWS V14.01,2013-02-10 09:18:00,
2013-02-10 04:19:00,16.0,13.6,30.40,NNE,22,1.0,1.0,90,-99.99,,,0.00,0.00,VWS V14.01,2013-02-10 09:19:00,
2013-02-10 04:20:00,16.0,13.3,30.40,ENE,68,1.0,3.0,89,-99.99,,,0.00,0.00,VWS V14.01,2013-02-10 09:20:00,
2013-02-10 04:21:00,16.0,13.6,30.40,NNE,22,0.0,1.0,90,-99.99,,,0.00,0.00,VWS V14.01,2013-02-10 09:21:00,
2013-02-10 04:22:00,16.0,13.6,30.40,NNE,22,1.0,1.0,90,-99.99,,,0.00,0.00,VWS V14.01,2013-02-10 09:22:00,
2013-02-10 04:23:00,16.0,13.6,30.40,ESE,112,1.0,2.0,90,-99.99,,,0.00,0.00,VWS V14.01,2013-02-10 09:23:00,
2013-02-10 04:24:00,16.0,13.8,30.40,East,90,1.0,1.0,91,-99.99,,,0.00,0.00,VWS V14.01,2013-02-10 09:24:00,
2013-02-10 04:25:00,16.0,13.6,30.40,NNE,22,0.0,0.0,90,-99.99,,,0.00,0.00,VWS V14.01,2013-02-10 09:25:00,
2013-02-10 04:26:00,16.0,13.8,30.40,NE,45,1.0,3.0,91,-99.99,,,0.00,0.00,VWS V14.01,2013-02-10 09:26:00,
2013-02-10 04:27:00,16.0,13.8,30.41,ENE,68,1.0,2.0,91,-99.99,,,0.00,0.00,VWS V14.01,2013-02-10 09:27:00,
2013-02-10 04:28:00,16.0,13.8,30.41,ENE,68,1.0,1.0,91,-99.99,,,0.00,0.00,VWS V14.01,2013-02-10 09:28:00,
2013-02-10 04:29:00,16.0,13.8,30.40,East,90,1.0,1.0,91,-99.99,,,0.00,0.00,VWS V14.01,2013-02-10 09:29:00,
2013-02-10 04:30:00,16.0,13.8,30.41,NE,45,1.0,2.0,91,-99.99,,,0.00,0.00,VWS V14.01,2013-02-10 09:30:00,
2013-02-10 04:31:00,16.0,13.8,30.41,SE,135,1.0,2.0,91,-99.99,,,0.00,0.00,VWS V14.01,2013-02-10 09:31:00,
2013-02-10 04:32:00,16.0,13.8,30.41,ESE,112,2.0,2.0,91,-99.99,,,0.00,0.00,VWS V14.01,2013-02-10 09:32:00,
2013-02-10 04:33:00,16.0,13.8,30.41,SE,135,1.0,3.0,91,-99.99,,,0.00,0.00,VWS V14.01,2013-02-10 09:33:00,
2013-02-10 04:34:00,16.0,13.8,30.41,SE,135,1.0,1.0,91,-99.99,,,0.00,0.00,VWS V14.01,2013-02-10 09:34:00,
2013-02-10 04:35:00,16.0,13.8,30.41,ESE,112,1.0,2.0,91,-99.99,,,0.00,0.00,VWS V14.01,2013-02-10 09:35:00,
2013-02-10 04:36:00,16.0,13.8,30.41,ESE,112,1.0,2.0,91,-99.99,,,0.00,0.00,VWS V14.01,2013-02-10 09:36:00,
2013-02-10 04:37:00,16.0,13.8,30.41,ESE,112,0.0,2.0,91,-99.99,,,0.00,0.00,VWS V14.01,2013-02-10 09:37:00,
2013-02-10 04:38:00,16.0,13.8,30.40,SE,135,0.0,1.0,91,-99.99,,,0.00,0.00,VWS V14.01,2013-02-10 09:38:00,
2013-02-10 04:40:00,16.0,13.8,30.41,ESE,112,1.0,2.0,91,-99.99,,,0.00,0.00,VWS V14.01,2013-02-10 09:40:00,
2013-02-10 04:45:00,16.0,13.8,30.41,NE,45,0.0,1.0,91,-99.99,,,0.00,0.00,VWS V14.01,2013-02-10 09:45:00,
2013-02-10 04:50:00,16.0,13.8,30.41,ESE,112,1.0,2.0,91,-99.99,,,0.00,0.00,VWS V14.01,2013-02-10 09:50:00,
2013-02-10 04:55:00,16.0,13.8,30.41,SE,135,1.0,2.0,91,-99.99,,,0.00,0.00,VWS V14.01,2013-02-10 09:55:00,
2013-02-10 05:00:00,15.0,12.9,30.41,NE,45,2.0,2.0,91,-99.99,,,0.00,0.00,VWS V14.01,2013-02-10 10:00:00,
2013-02-10 05:05:00,15.0,12.9,30.41,NNE,22,2.0,3.0,91,-99.99,,,0.00,0.00,VWS V14.01,2013-02-10 10:05:00,
2013-02-10 05:10:00,15.0,13.1,30.41,NE,45,1.0,2.0,92,-99.99,,,0.00,0.00,VWS V14.01,2013-02-10 10:10:00,
2013-02-10 05:15:00,15.0,13.3,30.41,NNE,22,1.0,2.0,93,-99.99,,,0.00,0.00,VWS V14.01,2013-02-10 10:15:00,
2013-02-10 05:20:00,14.0,12.4,30.41,NE,45,1.0,3.0,93,-99.99,,,0.00,0.00,VWS V14.01,2013-02-10 10:20:00,
2013-02-10 05:25:00,14.0,12.4,30.41,North,0,3.0,3.0,93,-99.99,,,0.00,0.00,VWS V14.01,2013-02-10 10:25:00,
2013-02-10 05:30:00,14.0,12.6,30.40,NNE,22,4.0,5.0,94,-99.99,,,0.00,0.00,VWS V14.01,2013-02-10 10:30:00,
2013-02-10 05:35:00,14.0,12.6,30.40,NNE,22,3.0,6.0,94,-99.99,,,0.00,0.00,VWS V14.01,2013-02-10 10:35:00,
2013-02-10 05:40:00,13.0,11.8,30.40,North,0,5.0,6.0,95,-99.99,,,0.00,0.00,VWS V14.01,2013-02-10 10:40:00,
2013-02-10 05:45:00,13.0,12.1,30.40,North,0,4.0,4.0,96,-99.99,,,0.00,0.00,VWS V14.01,2013-02-10 10:45:00,
2013-02-10 05:50:00,13.0,12.3,30.41,NNE,22,3.0,4.0,97,-99.99,,,0.00,0.00,VWS V14.01,2013-02-10 10:50:00,
2013-02-10 05:55:00,13.0,12.3,30.40,NNE,22,2.0,3.0,97,-99.99,,,0.00,0.00,VWS V14.01,2013-02-10 10:55:00,
2013-02-10 06:00:00,13.0,12.1,30.41,NE,45,2.0,4.0,96,-99.99,,,0.00,0.00,VWS V14.01,2013-02-10 11:00:00,
2013-02-10 06:05:00,13.0,12.3,30.41,NE,45,1.0,2.0,97,-99.99,,,0.00,0.00,VWS V14.01,2013-02-10 11:05:00,
2013-02-10 06:10:00,13.0,12.3,30.41,NE,45,2.0,3.0,97,-99.99,,,0.00,0.00,VWS V14.01,2013-02-10 11:10:00,
2013-02-10 06:15:00,13.0,12.3,30.42,NE,45,2.0,3.0,97,-99.99,,,0.00,0.00,VWS V14.01,2013-02-10 11:15:00,
2013-02-10 06:20:00,13.0,12.3,30.42,WNW,292,3.0,3.0,97,-99.99,,,0.00,0.00,VWS V14.01,2013-02-10 11:20:00,
2013-02-10 06:25:00,13.0,12.3,30.42,NNE,22,2.0,2.0,97,-99.99,,,0.00,0.00,VWS V14.01,2013-02-10 11:25:00,
2013-02-10 06:30:00,13.0,12.3,30.42,ENE,68,2.0,3.0,97,-99.99,,,0.00,0.00,VWS V14.01,2013-02-10 11:30:00,
2013-02-10 06:35:00,12.0,11.3,30.42,NE,45,2.0,3.0,97,-99.99,,,0.00,0.00,VWS V14.01,2013-02-10 11:35:00,
2013-02-10 06:40:00,12.0,11.3,30.42,North,0,4.0,6.0,97,-99.99,,,0.00,0.00,VWS V14.01,2013-02-10 11:40:00,
2013-02-10 06:45:00,12.0,11.3,30.42,NNE,22,4.0,5.0,97,-99.99,,,0.00,0.00,VWS V14.01,2013-02-10 11:45:00,
2013-02-10 06:50:00,12.0,11.5,30.42,NE,45,3.0,5.0,98,-99.99,,,0.00,0.00,VWS V14.01,2013-02-10 11:50:00,
2013-02-10 06:55:00,12.0,11.5,30.43,NNE,22,4.0,6.0,98,-99.99,,,0.00,0.00,VWS V14.01,2013-02-10 11:55:00,
2013-02-10 07:00:00,12.0,11.3,30.43,ENE,68,3.0,5.0,97,-99.99,,,0.00,0.00,VWS V14.01,2013-02-10 12:00:00,
2013-02-10 07:05:00,12.0,11.3,30.43,NE,45,4.0,4.0,97,-99.99,,,0.00,10.00,VWS V14.01,2013-02-10 12:05:00,
2013-02-10 07:10:00,12.0,11.3,30.43,NNE,22,4.0,5.0,97,-99.99,,,0.00,10.00,VWS V14.01,2013-02-10 12:10:00,
2013-02-10 07:15:00,12.0,11.3,30.43,NNE,22,4.0,5.0,97,-99.99,,,0.00,10.00,VWS V14.01,2013-02-10 12:15:00,
2013-02-10 07:20:00,12.0,11.3,30.44,NE,45,4.0,4.0,97,-99.99,,,0.00,50.00,VWS V14.01,2013-02-10 12:20:00,
2013-02-10 07:25:00,11.0,10.3,30.43,ENE,68,3.0,5.0,97,-99.99,,,0.00,70.00,VWS V14.01,2013-02-10 12:25:00,
2013-02-10 07:30:00,12.0,11.3,30.44,North,0,5.0,6.0,97,-99.99,,,0.00,90.00,VWS V14.01,2013-02-10 12:30:00,
2013-02-10 07:35:00,12.0,11.3,30.44,North,0,6.0,7.0,97,-99.99,,,0.00,110.00,VWS V14.01,2013-02-10 12:35:00,
2013-02-10 07:40:00,11.0,10.3,30.44,NNW,338,2.0,4.0,97,-99.99,,,0.00,130.00,VWS V14.01,2013-02-10 12:40:00,
2013-02-10 07:45:00,12.0,11.3,30.45,NW,315,2.0,3.0,97,-99.99,,,0.00,140.00,VWS V14.01,2013-02-10 12:45:00,
2013-02-10 07:50:00,12.0,11.3,30.45,NNW,338,4.0,6.0,97,-99.99,,,0.00,140.00,VWS V14.01,2013-02-10 12:50:00,
2013-02-10 07:55:00,12.0,11.5,30.45,NNE,22,2.0,4.0,98,-99.99,,,0.00,160.00,VWS V14.01,2013-02-10 12:55:00,
2013-02-10 08:00:00,13.0,12.3,30.45,NNE,22,4.0,4.0,97,-99.99,,,0.00,180.00,VWS V14.01,2013-02-10 13:00:00,
2013-02-10 08:05:00,13.0,12.3,30.46,NE,45,3.0,3.0,97,-99.99,,,0.00,190.00,VWS V14.01,2013-02-10 13:05:00,
2013-02-10 08:10:00,13.0,12.1,30.46,NE,45,2.0,3.0,96,-99.99,,,0.00,210.00,VWS V14.01,2013-02-10 13:10:00,
2013-02-10 08:15:00,14.0,13.1,30.45,NNE,22,4.0,5.0,96,-99.99,,,0.00,220.00,VWS V14.01,2013-02-10 13:15:00,
2013-02-10 08:20:00,14.0,12.8,30.45,NNE,22,2.0,4.0,95,-99.99,,,0.00,240.00,VWS V14.01,2013-02-10 13:20:00,
2013-02-10 08:25:00,14.0,12.6,30.46,NNE,22,4.0,6.0,94,-99.99,,,0.00,260.00,VWS V14.01,2013-02-10 13:25:00,
2013-02-10 08:30:00,14.0,12.6,30.45,NE,45,5.0,5.0,94,-99.99,,,0.00,270.00,VWS V14.01,2013-02-10 13:30:00,
2013-02-10 08:35:00,14.0,12.1,30.45,NE,45,5.0,5.0,92,-99.99,,,0.00,230.00,VWS V14.01,2013-02-10 13:35:00,
2013-02-10 08:40:00,14.0,11.9,30.46,East,90,3.0,5.0,91,-99.99,,,0.00,260.00,VWS V14.01,2013-02-10 13:40:00,
2013-02-10 08:45:00,14.0,11.9,30.46,NE,45,3.0,5.0,91,-99.99,,,0.00,250.00,VWS V14.01,2013-02-10 13:45:00,
2013-02-10 08:50:00,14.0,11.9,30.46,NNE,22,4.0,5.0,91,-99.99,,,0.00,230.00,VWS V14.01,2013-02-10 13:50:00,
2013-02-10 08:55:00,15.0,12.9,30.46,North,0,3.0,5.0,91,-99.99,,,0.00,280.00,VWS V14.01,2013-02-10 13:55:00,
2013-02-10 09:00:00,15.0,12.6,30.46,NNE,22,2.0,5.0,90,-99.99,,,0.00,320.00,VWS V14.01,2013-02-10 14:00:00,
2013-02-10 09:05:00,16.0,13.3,30.46,NE,45,2.0,3.0,89,-99.99,,,0.00,310.00,VWS V14.01,2013-02-10 14:05:00,
2013-02-10 09:10:00,16.0,13.1,30.46,NE,45,2.0,3.0,88,-99.99,,,0.00,300.00,VWS V14.01,2013-02-10 14:10:00,
2013-02-10 09:15:00,17.0,14.3,30.46,NNE,22,3.0,4.0,89,-99.99,,,0.00,290.00,VWS V14.01,2013-02-10 14:15:00,
2013-02-10 09:20:00,17.0,13.8,30.46,NNE,22,2.0,3.0,87,-99.99,,,0.00,310.00,VWS V14.01,2013-02-10 14:20:00,
2013-02-10 09:25:00,18.0,14.5,30.46,NE,45,4.0,4.0,86,-99.99,,,0.00,370.00,VWS V14.01,2013-02-10 14:25:00,
2013-02-10 09:30:00,19.0,15.2,30.46,ENE,68,4.0,4.0,85,-99.99,,,0.00,390.00,VWS V14.01,2013-02-10 14:30:00,
2013-02-10 09:35:00,19.0,15.0,30.45,NE,45,6.0,6.0,84,-99.99,,,0.00,390.00,VWS V14.01,2013-02-10 14:35:00,
2013-02-10 09:40:00,19.0,15.0,30.45,NE,45,2.0,4.0,84,-99.99,,,0.00,400.00,VWS V14.01,2013-02-10 14:40:00,
2013-02-10 09:45:00,19.0,15.0,30.46,North,0,5.0,5.0,84,-99.99,,,0.00,320.00,VWS V14.01,2013-02-10 14:45:00,
2013-02-10 09:50:00,19.0,15.2,30.45,NNE,22,4.0,5.0,85,-99.99,,,0.00,380.00,VWS V14.01,2013-02-10 14:50:00,
2013-02-10 09:55:00,19.0,15.0,30.45,ENE,68,5.0,5.0,84,-99.99,,,0.00,420.00,VWS V14.01,2013-02-10 14:55:00,
2013-02-10 10:00:00,20.0,15.9,30.45,NNW,338,4.0,4.0,84,-99.99,,,0.00,190.00,VWS V14.01,2013-02-10 15:00:00,
2013-02-10 10:05:00,20.0,15.4,30.45,NNE,22,7.0,8.0,82,-99.99,,,0.00,100.00,VWS V14.01,2013-02-10 15:05:00,
2013-02-10 10:10:00,21.0,16.7,30.45,NE,45,4.0,6.0,83,-99.99,,,0.00,90.00,VWS V14.01,2013-02-10 15:10:00,
2013-02-10 10:15:00,22.0,17.6,30.45,NNE,22,4.0,6.0,83,-99.99,,,0.00,180.00,VWS V14.01,2013-02-10 15:15:00,
2013-02-10 10:20:00,22.0,16.5,30.45,North,0,3.0,6.0,79,-99.99,,,0.00,80.00,VWS V14.01,2013-02-10 15:20:00,
2013-02-10 10:25:00,22.0,16.8,30.45,ENE,68,2.0,4.0,80,-99.99,,,0.00,280.00,VWS V14.01,2013-02-10 15:25:00,
2013-02-10 10:30:00,22.0,16.5,30.45,ENE,68,1.0,4.0,79,-99.99,,,0.00,460.00,VWS V14.01,2013-02-10 15:30:00,
2013-02-10 10:35:00,23.0,17.8,30.46,NE,45,6.0,6.0,80,-99.99,,,0.00,400.00,VWS V14.01,2013-02-10 15:35:00,
2013-02-10 10:40:00,23.0,17.5,30.46,NNE,22,4.0,5.0,79,-99.99,,,0.00,350.00,VWS V14.01,2013-02-10 15:40:00,
2013-02-10 10:45:00,24.0,17.9,30.45,NNE,22,4.0,5.0,77,-99.99,,,0.00,450.00,VWS V14.01,2013-02-10 15:45:00,
2013-02-10 10:50:00,24.0,17.2,30.45,ENE,68,6.0,6.0,75,-99.99,,,0.00,490.00,VWS V14.01,2013-02-10 15:50:00,
2013-02-10 10:55:00,24.0,17.2,30.45,East,90,4.0,4.0,75,-99.99,,,0.00,490.00,VWS V14.01,2013-02-10 15:55:00,
2013-02-10 11:00:00,25.0,18.2,30.44,NE,45,3.0,4.0,75,-99.99,,,0.00,490.00,VWS V14.01,2013-02-10 16:00:00,
2013-02-10 11:05:00,25.0,17.9,30.44,ENE,68,5.0,5.0,74,-99.99,,,0.00,450.00,VWS V14.01,2013-02-10 16:05:00,
2013-02-10 11:10:00,25.0,17.9,30.43,NE,45,3.0,5.0,74,-99.99,,,0.00,430.00,VWS V14.01,2013-02-10 16:10:00,
2013-02-10 11:15:00,26.0,18.9,30.43,North,0,2.0,3.0,74,-99.99,,,0.00,440.00,VWS V14.01,2013-02-10 16:15:00,
2013-02-10 11:20:00,26.0,18.2,30.42,NNE,22,6.0,6.0,72,-99.99,,,0.00,510.00,VWS V14.01,2013-02-10 16:20:00,
2013-02-10 11:25:00,25.0,17.3,30.41,NNE,22,4.0,8.0,72,-99.99,,,0.00,490.00,VWS V14.01,2013-02-10 16:25:00,
2013-02-10 11:30:00,25.0,17.6,30.41,North,0,7.0,10.0,73,-99.99,,,0.00,510.00,VWS V14.01,2013-02-10 16:30:00,
2013-02-10 11:35:00,26.0,18.5,30.40,North,0,6.0,8.0,73,-99.99,,,0.00,510.00,VWS V14.01,2013-02-10 16:35:00,
2013-02-10 11:40:00,26.0,18.2,30.40,NNE,22,3.0,5.0,72,-99.99,,,0.00,510.00,VWS V14.01,2013-02-10 16:40:00,
2013-02-10 11:45:00,26.0,17.9,30.39,North,0,4.0,8.0,71,-99.99,,,0.00,510.00,VWS V14.01,2013-02-10 16:45:00,
2013-02-10 11:50:00,27.0,18.9,30.39,NE,45,9.0,10.0,71,-99.99,,,0.00,500.00,VWS V14.01,2013-02-10 16:50:00,
2013-02-10 11:55:00,27.0,18.5,30.39,ENE,68,3.0,5.0,70,-99.99,,,0.00,470.00,VWS V14.01,2013-02-10 16:55:00,
2013-02-10 12:00:00,28.0,18.5,30.39,NE,45,6.0,8.0,67,-99.99,,,0.00,460.00,VWS V14.01,2013-02-10 17:00:00,
2013-02-10 12:05:00,27.0,17.5,30.38,ENE,68,2.0,5.0,67,-99.99,,,0.00,480.00,VWS V14.01,2013-02-10 17:05:00,
2013-02-10 12:10:00,28.0,19.2,30.38,NE,45,2.0,4.0,69,-99.99,,,0.00,510.00,VWS V14.01,2013-02-10 17:10:00,
2013-02-10 12:15:00,29.0,19.4,30.38,NE,45,3.0,4.0,67,-99.99,,,0.00,510.00,VWS V14.01,2013-02-10 17:15:00,
2013-02-10 12:20:00,30.0,20.0,30.38,NNW,338,3.0,4.0,66,-99.99,,,0.00,500.00,VWS V14.01,2013-02-10 17:20:00,
2013-02-10 12:25:00,29.0,19.1,30.38,West,270,2.0,4.0,66,-99.99,,,0.00,510.00,VWS V14.01,2013-02-10 17:25:00,
2013-02-10 12:30:00,30.0,20.0,30.38,West,270,2.0,3.0,66,-99.99,,,0.00,510.00,VWS V14.01,2013-02-10 17:30:00,
2013-02-10 12:35:00,30.0,20.0,30.37,WSW,248,2.0,3.0,66,-99.99,,,0.00,500.00,VWS V14.01,2013-02-10 17:35:00,
2013-02-10 12:40:00,30.0,19.3,30.37,NNE,22,2.0,6.0,64,-99.99,,,0.00,500.00,VWS V14.01,2013-02-10 17:40:00,
2013-02-10 12:45:00,30.0,19.7,30.37,WSW,248,2.0,3.0,65,-99.99,,,0.00,500.00,VWS V14.01,2013-02-10 17:45:00,
2013-02-10 12:50:00,31.0,20.3,30.37,SW,225,3.0,3.0,64,-99.99,,,0.00,500.00,VWS V14.01,2013-02-10 17:50:00,
2013-02-10 12:55:00,31.0,19.9,30.37,SW,225,2.0,3.0,63,-99.99,,,0.00,500.00,VWS V14.01,2013-02-10 17:55:00,
2013-02-10 13:00:00,33.0,21.4,30.37,NNE,22,3.0,3.0,62,-99.99,,,0.00,490.00,VWS V14.01,2013-02-10 18:00:00,
2013-02-10 13:05:00,33.0,20.2,30.36,North,0,1.0,3.0,59,-99.99,,,0.00,490.00,VWS V14.01,2013-02-10 18:05:00,
2013-02-10 13:10:00,33.0,20.6,30.36,NE,45,3.0,4.0,60,-99.99,,,0.00,480.00,VWS V14.01,2013-02-10 18:10:00,
2013-02-10 13:15:00,33.0,20.6,30.36,NW,315,1.0,2.0,60,-99.99,,,0.00,480.00,VWS V14.01,2013-02-10 18:15:00,
2013-02-10 13:20:00,33.0,19.9,30.36,NNW,338,1.0,2.0,58,-99.99,,,0.00,480.00,VWS V14.01,2013-02-10 18:20:00,
2013-02-10 13:25:00,34.0,21.2,30.35,ESE,112,3.0,5.0,59,-99.99,,,0.00,410.00,VWS V14.01,2013-02-10 18:25:00,
2013-02-10 13:30:00,34.0,21.2,30.35,ENE,68,4.0,4.0,59,-99.99,,,0.00,390.00,VWS V14.01,2013-02-10 18:30:00,
2013-02-10 13:35:00,33.0,19.9,30.37,North,0,2.0,3.0,58,-99.99,,,0.00,300.00,VWS V14.01,2013-02-10 18:35:00,
2013-02-10 13:40:00,34.0,20.8,30.35,SE,135,1.0,4.0,58,-99.99,,,0.00,490.00,VWS V14.01,2013-02-10 18:40:00,
2013-02-10 13:45:00,34.0,20.8,30.35,NNE,22,4.0,4.0,58,-99.99,,,0.00,470.00,VWS V14.01,2013-02-10 18:45:00,
2013-02-10 13:50:00,34.0,20.8,30.34,NE,45,5.0,6.0,58,-99.99,,,0.00,450.00,VWS V14.01,2013-02-10 18:50:00,
2013-02-10 13:55:00,34.0,20.8,30.34,NE,45,3.0,4.0,58,-99.99,,,0.00,460.00,VWS V14.01,2013-02-10 18:55:00,
2013-02-10 14:00:00,35.0,21.3,30.33,NNE,22,2.0,5.0,57,-99.99,,,0.00,420.00,VWS V14.01,2013-02-10 19:00:00,
2013-02-10 14:05:00,35.0,21.3,30.32,ENE,68,3.0,4.0,57,-99.99,,,0.00,400.00,VWS V14.01,2013-02-10 19:05:00,
2013-02-10 14:10:00,35.0,20.5,30.32,NE,45,4.0,5.0,55,-99.99,,,0.00,400.00,VWS V14.01,2013-02-10 19:10:00,
2013-02-10 14:15:00,35.0,20.0,30.32,NE,45,3.0,5.0,54,-99.99,,,0.00,420.00,VWS V14.01,2013-02-10 19:15:00,
2013-02-10 14:20:00,35.0,18.7,30.32,NNW,338,1.0,4.0,51,-99.99,,,0.00,380.00,VWS V14.01,2013-02-10 19:20:00,
2013-02-10 14:25:00,35.0,19.6,30.32,ENE,68,4.0,4.0,53,-99.99,,,0.00,380.00,VWS V14.01,2013-02-10 19:25:00,
2013-02-10 14:30:00,36.0,20.1,30.31,SE,135,4.0,5.0,52,-99.99,,,0.00,400.00,VWS V14.01,2013-02-10 19:30:00,
2013-02-10 14:35:00,37.0,21.0,30.32,ENE,68,3.0,4.0,52,-99.99,,,0.00,420.00,VWS V14.01,2013-02-10 19:35:00,
2013-02-10 14:40:00,37.0,19.6,30.32,ESE,112,1.0,3.0,49,-99.99,,,0.00,440.00,VWS V14.01,2013-02-10 19:40:00,
2013-02-10 14:45:00,38.0,20.1,30.32,North,0,2.0,3.0,48,-99.99,,,0.00,360.00,VWS V14.01,2013-02-10 19:45:00,
2013-02-10 14:50:00,39.0,21.5,30.32,NE,45,3.0,3.0,49,-99.99,,,0.00,340.00,VWS V14.01,2013-02-10 19:50:00,
2013-02-10 14:55:00,39.0,21.0,30.32,NE,45,5.0,5.0,48,-99.99,,,0.00,370.00,VWS V14.01,2013-02-10 19:55:00,
2013-02-10 15:00:00,39.0,21.0,30.31,ESE,112,3.0,4.0,48,-99.99,,,0.00,350.00,VWS V14.01,2013-02-10 20:00:00,
2013-02-10 15:05:00,38.0,20.1,30.31,ENE,68,2.0,3.0,48,-99.99,,,0.00,340.00,VWS V14.01,2013-02-10 20:05:00,
2013-02-10 15:10:00,39.0,21.0,30.29,East,90,4.0,6.0,48,-99.99,,,0.00,330.00,VWS V14.01,2013-02-10 20:10:00,
2013-02-10 15:15:00,38.0,20.1,30.29,ENE,68,6.0,7.0,48,-99.99,,,0.00,320.00,VWS V14.01,2013-02-10 20:15:00,
2013-02-10 15:20:00,38.0,19.6,30.29,NNE,22,6.0,6.0,47,-99.99,,,0.00,310.00,VWS V14.01,2013-02-10 20:20:00,
2013-02-10 15:25:00,38.0,19.6,30.29,NE,45,6.0,6.0,47,-99.99,,,0.00,290.00,VWS V14.01,2013-02-10 20:25:00,
2013-02-10 15:30:00,38.0,19.1,30.29,East,90,3.0,3.0,46,-99.99,,,0.00,280.00,VWS V14.01,2013-02-10 20:30:00,
2013-02-10 15:35:00,38.0,19.6,30.28,ENE,68,3.0,3.0,47,-99.99,,,0.00,270.00,VWS V14.01,2013-02-10 20:35:00,
2013-02-10 15:40:00,38.0,18.6,30.28,ENE,68,3.0,6.0,45,-99.99,,,0.00,260.00,VWS V14.01,2013-02-10 20:40:00,
2013-02-10 15:45:00,38.0,19.1,30.28,ENE,68,5.0,6.0,46,-99.99,,,0.00,250.00,VWS V14.01,2013-02-10 20:45:00,
2013-02-10 15:50:00,38.0,19.1,30.28,ENE,68,4.0,4.0,46,-99.99,,,0.00,240.00,VWS V14.01,2013-02-10 20:50:00,
2013-02-10 15:55:00,38.0,19.6,30.28,ENE,68,5.0,5.0,47,-99.99,,,0.00,230.00,VWS V14.01,2013-02-10 20:55:00,
2013-02-10 16:00:00,38.0,19.1,30.28,NE,45,5.0,5.0,46,-99.99,,,0.00,230.00,VWS V14.01,2013-02-10 21:00:00,
2013-02-10 16:05:00,38.0,19.1,30.29,NE,45,3.0,4.0,46,-99.99,,,0.00,200.00,VWS V14.01,2013-02-10 21:05:00,
2013-02-10 16:10:00,38.0,19.6,30.29,East,90,2.0,2.0,47,-99.99,,,0.00,210.00,VWS V14.01,2013-02-10 21:10:00,
2013-02-10 16:15:00,38.0,18.0,30.28,NNE,22,5.0,6.0,44,-99.99,,,0.00,190.00,VWS V14.01,2013-02-10 21:15:00,
2013-02-10 16:20:00,38.0,18.6,30.29,NE,45,3.0,4.0,45,-99.99,,,0.00,190.00,VWS V14.01,2013-02-10 21:20:00,
2013-02-10 16:25:00,39.0,20.0,30.29,NNW,338,1.0,4.0,46,-99.99,,,0.00,170.00,VWS V14.01,2013-02-10 21:25:00,
2013-02-10 16:30:00,39.0,19.5,30.28,NE,45,2.0,3.0,45,-99.99,,,0.00,80.00,VWS V14.01,2013-02-10 21:30:00,
2013-02-10 16:35:00,39.0,19.5,30.29,NE,45,3.0,3.0,45,-99.99,,,0.00,30.00,VWS V14.01,2013-02-10 21:35:00,
2013-02-10 16:40:00,39.0,18.4,30.28,NE,45,2.0,3.0,43,-99.99,,,0.00,30.00,VWS V14.01,2013-02-10 21:40:00,
2013-02-10 16:45:00,39.0,17.9,30.28,SSE,158,1.0,3.0,42,-99.99,,,0.00,20.00,VWS V14.01,2013-02-10 21:45:00,
2013-02-10 16:50:00,38.0,17.0,30.28,ENE,68,1.0,3.0,42,-99.99,,,0.00,30.00,VWS V14.01,2013-02-10 21:50:00,
2013-02-10 16:55:00,38.0,15.3,30.28,East,90,3.0,5.0,39,-99.99,,,0.00,20.00,VWS V14.01,2013-02-10 21:55:00,
2013-02-10 17:00:00,39.0,16.2,30.28,East,90,6.0,6.0,39,-99.99,,,0.00,20.00,VWS V14.01,2013-02-10 22:00:00,
2013-02-10 17:05:00,38.0,17.0,30.28,ESE,112,3.0,4.0,42,-99.99,,,0.00,10.00,VWS V14.01,2013-02-10 22:05:00,
2013-02-10 17:10:00,38.0,19.1,30.29,ENE,68,4.0,4.0,46,-99.99,,,0.00,10.00,VWS V14.01,2013-02-10 22:10:00,
2013-02-10 17:15:00,37.0,16.6,30.28,ESE,112,8.0,8.0,43,-99.99,,,0.00,10.00,VWS V14.01,2013-02-10 22:15:00,
2013-02-10 17:20:00,38.0,16.4,30.28,ESE,112,7.0,8.0,41,-99.99,,,0.00,10.00,VWS V14.01,2013-02-10 22:20:00,
2013-02-10 17:25:00,38.0,15.3,30.28,ESE,112,10.0,10.0,39,-99.99,,,0.00,10.00,VWS V14.01,2013-02-10 22:25:00,
2013-02-10 17:30:00,38.0,13.4,30.29,East,90,10.0,13.0,36,-99.99,,,0.00,0.00,VWS V14.01,2013-02-10 22:30:00,
2013-02-10 17:35:00,38.0,14.1,30.29,SE,135,4.0,5.0,37,-99.99,,,0.00,0.00,VWS V14.01,2013-02-10 22:35:00,
2013-02-10 17:40:00,38.0,14.1,30.29,East,90,8.0,8.0,37,-99.99,,,0.00,0.00,VWS V14.01,2013-02-10 22:40:00,
2013-02-10 17:45:00,38.0,14.1,30.28,SE,135,6.0,7.0,37,-99.99,,,0.00,0.00,VWS V14.01,2013-02-10 22:45:00,
2013-02-10 17:50:00,38.0,13.4,30.28,ESE,112,6.0,6.0,36,-99.99,,,0.00,0.00,VWS V14.01,2013-02-10 22:50:00,
2013-02-10 17:55:00,37.0,13.2,30.28,ESE,112,6.0,7.0,37,-99.99,,,0.00,0.00,VWS V14.01,2013-02-10 22:55:00,
2013-02-10 18:00:00,37.0,13.2,30.29,ESE,112,5.0,9.0,37,-99.99,,,0.00,0.00,VWS V14.01,2013-02-10 23:00:00,
2013-02-10 18:05:00,37.0,13.2,30.29,ESE,112,5.0,5.0,37,-99.99,,,0.00,0.00,VWS V14.01,2013-02-10 23:05:00,
2013-02-10 18:10:00,37.0,13.2,30.29,SE,135,5.0,7.0,37,-99.99,,,0.00,0.00,VWS V14.01,2013-02-10 23:10:00,
2013-02-10 18:15:00,37.0,13.2,30.29,ESE,112,5.0,6.0,37,-99.99,,,0.00,0.00,VWS V14.01,2013-02-10 23:15:00,
2013-02-10 18:20:00,37.0,13.2,30.29,ESE,112,4.0,6.0,37,-99.99,,,0.00,0.00,VWS V14.01,2013-02-10 23:20:00,
2013-02-10 18:25:00,37.0,13.2,30.28,ESE,112,4.0,5.0,37,-99.99,,,0.00,0.00,VWS V14.01,2013-02-10 23:25:00,
2013-02-10 18:30:00,37.0,13.8,30.28,East,90,4.0,4.0,38,-99.99,,,0.00,0.00,VWS V14.01,2013-02-10 23:30:00,
2013-02-10 18:35:00,37.0,13.2,30.28,NE,45,5.0,5.0,37,-99.99,,,0.00,0.00,VWS V14.01,2013-02-10 23:35:00,
2013-02-10 18:40:00,37.0,13.2,30.28,East,90,5.0,6.0,37,-99.99,,,0.00,0.00,VWS V14.01,2013-02-10 23:40:00,
2013-02-10 18:45:00,36.0,12.3,30.27,NE,45,5.0,7.0,37,-99.99,,,0.00,0.00,VWS V14.01,2013-02-10 23:45:00,
2013-02-10 18:50:00,36.0,12.3,30.27,NE,45,8.0,9.0,37,-99.99,,,0.00,0.00,VWS V14.01,2013-02-10 23:50:00,
2013-02-10 18:55:00,36.0,12.3,30.27,ENE,68,5.0,5.0,37,-99.99,,,0.00,0.00,VWS V14.01,2013-02-10 23:55:00,
2013-02-10 19:00:00,37.0,13.2,30.27,ENE,68,6.0,6.0,37,-99.99,,,0.00,0.00,VWS V14.01,2013-02-11 00:00:00,
2013-02-10 19:05:00,37.0,13.2,30.27,NE,45,6.0,6.0,37,-99.99,,,0.00,0.00,VWS V14.01,2013-02-11 00:05:00,
2013-02-10 19:10:00,37.0,13.2,30.27,NE,45,3.0,6.0,37,-99.99,,,0.00,0.00,VWS V14.01,2013-02-11 00:10:00,
2013-02-10 19:15:00,36.0,12.3,30.27,ENE,68,4.0,6.0,37,-99.99,,,0.00,0.00,VWS V14.01,2013-02-11 00:15:00,
2013-02-10 19:20:00,37.0,13.2,30.27,NE,45,3.0,5.0,37,-99.99,,,0.00,0.00,VWS V14.01,2013-02-11 00:20:00,
2013-02-10 19:25:00,37.0,13.2,30.27,ENE,68,3.0,5.0,37,-99.99,,,0.00,0.00,VWS V14.01,2013-02-11 00:25:00,
2013-02-10 19:30:00,36.0,12.3,30.27,NE,45,4.0,7.0,37,-99.99,,,0.00,0.00,VWS V14.01,2013-02-11 00:30:00,
2013-02-10 19:35:00,36.0,13.5,30.27,ENE,68,5.0,5.0,39,-99.99,,,0.00,0.00,VWS V14.01,2013-02-11 00:35:00,
2013-02-10 19:40:00,36.0,14.0,30.27,ENE,68,5.0,6.0,40,-99.99,,,0.00,0.00,VWS V14.01,2013-02-11 00:40:00,
2013-02-10 19:45:00,36.0,14.0,30.27,NE,45,11.0,11.0,40,-99.99,,,0.00,0.00,VWS V14.01,2013-02-11 00:45:00,
2013-02-10 19:50:00,36.0,14.6,30.27,ENE,68,4.0,8.0,41,-99.99,,,0.00,0.00,VWS V14.01,2013-02-11 00:50:00,
2013-02-10 19:55:00,36.0,15.1,30.27,NE,45,5.0,8.0,42,-99.99,,,0.00,0.00,VWS V14.01,2013-02-11 00:55:00,
2013-02-10 20:00:00,36.0,15.7,30.27,ENE,68,7.0,11.0,43,-99.99,,,0.00,0.00,VWS V14.01,2013-02-11 01:00:00,
2013-02-10 20:05:00,36.0,15.7,30.27,ENE,68,7.0,8.0,43,-99.99,,,0.00,0.00,VWS V14.01,2013-02-11 01:05:00,
2013-02-10 20:10:00,36.0,15.7,30.26,ENE,68,5.0,9.0,43,-99.99,,,0.00,0.00,VWS V14.01,2013-02-11 01:10:00,
2013-02-10 20:15:00,36.0,15.7,30.26,ENE,68,4.0,10.0,43,-99.99,,,0.00,0.00,VWS V14.01,2013-02-11 01:15:00,
2013-02-10 20:20:00,36.0,15.7,30.26,ENE,68,6.0,8.0,43,-99.99,,,0.00,0.00,VWS V14.01,2013-02-11 01:20:00,
2013-02-10 20:25:00,36.0,15.7,30.26,NE,45,5.0,6.0,43,-99.99,,,0.00,0.00,VWS V14.01,2013-02-11 01:25:00,
2013-02-10 20:30:00,36.0,15.7,30.26,ENE,68,6.0,7.0,43,-99.99,,,0.00,0.00,VWS V14.01,2013-02-11 01:30:00,
2013-02-10 20:35:00,36.0,15.7,30.26,ENE,68,4.0,6.0,43,-99.99,,,0.00,0.00,VWS V14.01,2013-02-11 01:35:00,
2013-02-10 20:40:00,36.0,16.2,30.26,ENE,68,3.0,4.0,44,-99.99,,,0.00,0.00,VWS V14.01,2013-02-11 01:40:00,
2013-02-10 20:45:00,37.0,16.6,30.26,East,90,4.0,5.0,43,-99.99,,,0.00,0.00,VWS V14.01,2013-02-11 01:45:00,
2013-02-10 20:50:00,37.0,16.6,30.26,East,90,4.0,5.0,43,-99.99,,,0.00,0.00,VWS V14.01,2013-02-11 01:50:00,
2013-02-10 20:55:00,36.0,16.2,30.26,ENE,68,4.0,7.0,44,-99.99,,,0.00,0.00,VWS V14.01,2013-02-11 01:55:00,
2013-02-10 21:00:00,36.0,16.2,30.25,ENE,68,7.0,8.0,44,-99.99,,,0.00,0.00,VWS V14.01,2013-02-11 02:00:00,
2013-02-10 21:05:00,36.0,15.1,30.25,NNE,22,5.0,12.0,42,-99.99,,,0.00,0.00,VWS V14.01,2013-02-11 02:05:00,
2013-02-10 21:10:00,36.0,14.6,30.24,NE,45,7.0,7.0,41,-99.99,,,0.00,0.00,VWS V14.01,2013-02-11 02:10:00,
2013-02-10 21:15:00,36.0,15.1,30.24,NNE,22,5.0,7.0,42,-99.99,,,0.00,0.00,VWS V14.01,2013-02-11 02:15:00,
2013-02-10 21:20:00,37.0,15.5,30.24,ENE,68,6.0,10.0,41,-99.99,,,0.00,0.00,VWS V14.01,2013-02-11 02:20:00,
2013-02-10 21:25:00,37.0,15.5,30.24,ENE,68,4.0,6.0,41,-99.99,,,0.00,0.00,VWS V14.01,2013-02-11 02:25:00,
2013-02-10 21:30:00,37.0,15.5,30.25,ENE,68,4.0,4.0,41,-99.99,,,0.00,0.00,VWS V14.01,2013-02-11 02:30:00,
2013-02-10 21:35:00,37.0,16.1,30.25,East,90,4.0,4.0,42,-99.99,,,0.00,0.00,VWS V14.01,2013-02-11 02:35:00,
2013-02-10 21:40:00,37.0,16.1,30.24,ENE,68,2.0,3.0,42,-99.99,,,0.00,0.00,VWS V14.01,2013-02-11 02:40:00,
2013-02-10 21:45:00,37.0,16.1,30.24,ESE,112,5.0,5.0,42,-99.99,,,0.00,0.00,VWS V14.01,2013-02-11 02:45:00,
2013-02-10 21:50:00,37.0,16.1,30.23,ESE,112,3.0,3.0,42,-99.99,,,0.00,0.00,VWS V14.01,2013-02-11 02:50:00,
2013-02-10 21:55:00,37.0,16.1,30.23,SE,135,4.0,8.0,42,-99.99,,,0.00,0.00,VWS V14.01,2013-02-11 02:55:00,
2013-02-10 22:00:00,37.0,16.1,30.22,ESE,112,7.0,7.0,42,-99.99,,,0.00,0.00,VWS V14.01,2013-02-11 03:00:00,
2013-02-10 22:05:00,37.0,16.6,30.22,ENE,68,3.0,7.0,43,-99.99,,,0.00,0.00,VWS V14.01,2013-02-11 03:05:00,
2013-02-10 22:10:00,37.0,17.1,30.22,ENE,68,2.0,3.0,44,-99.99,,,0.00,0.00,VWS V14.01,2013-02-11 03:10:00,
2013-02-10 22:15:00,37.0,16.1,30.22,ENE,68,3.0,3.0,42,-99.99,,,0.00,0.00,VWS V14.01,2013-02-11 03:15:00,
2013-02-10 22:20:00,37.0,16.1,30.23,NE,45,3.0,3.0,42,-99.99,,,0.00,0.00,VWS V14.01,2013-02-11 03:20:00,
2013-02-10 22:25:00,37.0,16.1,30.23,East,90,2.0,3.0,42,-99.99,,,0.00,0.00,VWS V14.01,2013-02-11 03:25:00,
2013-02-10 22:30:00,37.0,16.1,30.22,ESE,112,5.0,7.0,42,-99.99,,,0.00,0.00,VWS V14.01,2013-02-11 03:30:00,
2013-02-10 22:35:00,37.0,16.6,30.22,NE,45,6.0,7.0,43,-99.99,,,0.00,0.00,VWS V14.01,2013-02-11 03:35:00,
2013-02-10 22:40:00,37.0,16.6,30.22,ESE,112,7.0,11.0,43,-99.99,,,0.00,0.00,VWS V14.01,2013-02-11 03:40:00,
2013-02-10 22:45:00,37.0,17.1,30.22,East,90,4.0,5.0,44,-99.99,,,0.00,0.00,VWS V14.01,2013-02-11 03:45:00,
2013-02-10 22:50:00,37.0,17.1,30.22,ENE,68,10.0,10.0,44,-99.99,,,0.00,0.00,VWS V14.01,2013-02-11 03:50:00,
2013-02-10 22:55:00,37.0,17.1,30.22,ENE,68,6.0,9.0,44,-99.99,,,0.00,0.00,VWS V14.01,2013-02-11 03:55:00,
2013-02-10 23:00:00,37.0,17.1,30.22,ENE,68,4.0,8.0,44,-99.99,,,0.00,0.00,VWS V14.01,2013-02-11 04:00:00,
2013-02-10 23:05:00,37.0,17.6,30.21,SE,135,6.0,7.0,45,-99.99,,,0.00,0.00,VWS V14.01,2013-02-11 04:05:00,
2013-02-10 23:10:00,37.0,18.2,30.21,ESE,112,11.0,11.0,46,-99.99,,,0.00,0.00,VWS V14.01,2013-02-11 04:10:00,
2013-02-10 23:15:00,37.0,17.6,30.20,ESE,112,19.0,19.0,45,-99.99,,,0.00,0.00,VWS V14.01,2013-02-11 04:15:00,
2013-02-10 23:20:00,37.0,17.6,30.20,SE,135,7.0,11.0,45,-99.99,,,0.00,0.00,VWS V14.01,2013-02-11 04:20:00,
2013-02-10 23:25:00,37.0,17.6,30.20,SSE,158,5.0,5.0,45,-99.99,,,0.00,0.00,VWS V14.01,2013-02-11 04:25:00,
2013-02-10 23:30:00,38.0,18.6,30.20,SW,225,4.0,7.0,45,-99.99,,,0.00,0.00,VWS V14.01,2013-02-11 04:30:00,
2013-02-10 23:35:00,37.0,17.6,30.20,SSE,158,4.0,8.0,45,-99.99,,,0.00,0.00,VWS V14.01,2013-02-11 04:35:00,
2013-02-10 23:40:00,37.0,17.6,30.20,ESE,112,14.0,16.0,45,-99.99,,,0.00,0.00,VWS V14.01,2013-02-11 04:40:00,
2013-02-10 23:45:00,37.0,18.2,30.19,SE,135,8.0,11.0,46,-99.99,,,0.00,0.00,VWS V14.01,2013-02-11 04:45:00,
2013-02-10 23:50:00,37.0,17.6,30.19,ESE,112,12.0,12.0,45,-99.99,,,0.00,0.00,VWS V14.01,2013-02-11 04:50:00,
2013-02-10 23:55:00,38.0,18.6,30.19,ESE,112,10.0,11.0,45,-99.99,,,0.00,0.00,VWS V14.01,2013-02-11 04:55:00,